Tracking 26940 objects as of 28-Jan-2023
HD Live streaming from Space Station
objects crossing your sky now

MOLNIYA 1-80

Track MOLNIYA 1-80 now!
MOLNIYA 1-80 is classified as:


NORAD ID: 21118
Int'l Code: 1991-012A
Perigee: 2,184.5 km
Apogee: 37,383.3 km
Inclination: 65.2 °
Period: 701.6 minutes
Semi major axis: 26154 km
RCS: 6.3095 m2 (large)
Launch date: February 15, 1991
Source: Commonwealth of Independent States (former USSR) (CIS)
Launch site: PLESETSK MISSILE AND SPACE COMPLEX (PKMTR)
Your satellite tracking list
Your tracking list is empty




NASA's NSSDC Master Catalog

Two Line Element Set (TLE):
1 21118U 91012A   23027.75666931 -.00000955  00000-0  00000-0 0  9993
2 21118  65.1841 308.7940 6728917 274.7045  17.5159  2.05245645235584
Source of the keplerian elements: AFSPC